FW0323 Weather Reports


Display with metric or nautical units.
time (UTC)temp
F
wind
direction
speed
MPH
gust
MPH
rain 1hr
in
rain 24hr
in
rain mn
in
humidity
%
barometer
mb
20260905110007 60 160 0.0 1.0 0.00 0.00 0.00 95 1012.4
20260905104559 60 358 0.0 1.0 0.00 0.00 0.00 96 1012.0
20260905103103 59 358 0.0 1.0 0.00 0.00 0.00 96 1012.1
20260905101559 59 358 0.0 1.0 0.00 0.00 0.00 96 1011.9
20260905100101 59 26 0.0 4.0 0.00 0.00 0.00 96 1011.9
20260905094555 59 208 0.0 1.0 0.00 0.00 0.00 97 1011.7
20260905093110 58 271 0.0 1.0 0.00 0.00 0.00 97 1011.6
20260905091556 58 271 0.0 1.0 0.00 0.00 0.00 97 1011.6
20260905090053 57 28 0.0 1.0 0.00 0.00 0.00 97 1011.6
20260905084553 57 28 0.0 1.0 0.00 0.00 0.00 96 1011.5
20260905083049 58 28 0.0 0.0 0.00 0.00 0.00 96 1011.4
20260905081548 58 28 0.0 0.0 0.00 0.00 0.00 97 1011.3
20260905080048 58 28 0.0 1.0 0.00 0.00 0.00 97 1011.1
20260905074546 58 28 0.0 0.0 0.00 0.00 0.00 96 1010.9
20260905073046 58 28 0.0 0.0 0.00 0.00 0.00 96 1011.0
20260905071547 58 28 0.0 1.0 0.00 0.00 0.00 96 1010.9
20260905070052 58 28 0.0 0.0 0.00 0.00 0.00 96 1010.9
20260905064549 58 28 0.0 0.0 0.00 0.00 0.00 95 1010.9
20260905063041 59 28 0.0 0.0 0.00 0.00 0.00 94 1010.9
20260905061538 59 28 0.0 0.0 0.00 0.00 0.00 94 1010.9
20260905060040 60 28 0.0 1.0 0.00 0.00 0.00 94 1011.0
20260905054545 60 28 0.0 0.0 0.00 0.00 0.00 93 1011.1
20260905053036 60 28 0.0 0.0 0.00 0.00 0.00 93 1011.1
20260905051541 61 28 0.0 1.0 0.00 0.00 0.00 92 1011.1
20260905050032 61 28 0.0 1.0 0.00 0.00 0.00 93 1011.3
20260905044530 61 28 0.0 1.0 0.00 0.00 0.00 92 1011.1
20260905043033 61 28 0.0 1.0 0.00 0.00 0.00 91 1011.2
20260905041527 62 28 0.0 1.0 0.00 0.00 0.00 91 1011.2
20260905040027 62 53 0.0 1.0 0.00 0.00 0.00 90 1011.1
20260905034529 62 53 0.0 0.0 0.00 0.00 0.00 90 1011.1
20260905033027 62 53 0.0 1.0 0.00 0.00 0.00 90 1011.3
20260905031523 62 53 0.0 0.0 0.00 0.00 0.00 90 1011.2
20260905030023 63 53 0.0 0.0 0.00 0.00 0.00 89 1011.3
20260905024524 63 53 0.0 1.0 0.00 0.00 0.00 88 1011.3
20260905023021 63 53 0.0 0.0 0.00 0.00 0.00 88 1011.3
20260905021534 64 53 0.0 0.0 0.00 0.00 0.00 86 1011.4
20260905020026 64 53 0.0 1.0 0.00 0.00 0.00 86 1011.5
20260905014520 64 53 0.0 1.0 0.00 0.00 0.00 85 1011.6
20260905013024 65 53 0.0 1.0 0.00 0.00 0.00 84 1011.7
20260905011519 65 53 0.0 1.0 0.00 0.00 0.00 84 1011.6
20260905010023 66 53 0.0 1.0 0.00 0.00 0.00 83 1011.4
20260905004521 66 53 0.0 1.0 0.00 0.00 0.00 83 1011.5
20260905003028 66 53 0.0 1.0 0.00 0.00 0.00 83 1011.4
20260905001518 67 53 0.0 1.0 0.00 0.00 0.00 81 1011.4
20260905000018 68 53 0.0 0.0 0.00 0.00 0.00 80 1011.2
20260904234516 68 53 0.0 0.0 0.00 0.00 0.00 77 1011.1
20260904233016 69 53 0.0 1.0 0.00 0.00 0.00 76 1011.1
20260904231515 69 340 0.0 2.0 0.00 0.00 0.00 78 1011.1
20260904230016 69 305 0.0 2.0 0.00 0.00 0.00 78 1011.3
20260904224514 70 260 0.0 1.0 0.00 0.00 0.00 74 1011.1
20260904223015 70 103 0.0 1.0 0.00 0.00 0.00 80 1010.8
20260904221533 71 102 0.0 1.0 0.00 0.00 0.00 74 1010.9
20260904220014 71 144 0.0 2.0 0.00 0.00 0.00 77 1011.0
20260904214517 72 153 0.0 2.0 0.00 0.00 0.00 76 1010.8
20260904213016 72 145 0.0 1.0 0.00 0.00 0.00 77 1010.9
20260904211512 72 138 0.0 1.0 0.00 0.00 0.00 77 1010.8
20260904210012 73 101 0.0 2.0 0.00 0.00 0.00 77 1010.7
20260904204511 73 331 1.0 3.0 0.00 0.00 0.00 75 1010.7
20260904203012 74 149 1.0 4.0 0.00 0.00 0.00 71 1010.7
20260904201514 76 110 0.0 3.0 0.00 0.00 0.00 69 1010.6
20260904200008 75 79 0.0 4.0 0.00 0.00 0.00 71 1010.7
20260904194506 75 131 0.0 3.0 0.00 0.00 0.00 70 1010.7
20260904193006 75 123 1.0 4.0 0.00 0.00 0.00 68 1010.8
20260904191506 76 113 0.0 5.0 0.00 0.00 0.00 67 1010.9
20260904190008 75 12 0.0 3.0 0.00 0.00 0.00 72 1011.1
20260904184504 76 240 1.0 3.0 0.00 0.00 0.00 70 1011.0
20260904183002 76 160 0.0 3.0 0.00 0.00 0.00 69 1011.0
20260904181502 76 191 0.0 3.0 0.00 0.00 0.00 71 1011.0
20260904180005 77 345 1.0 4.0 0.00 0.00 0.00 71 1011.1
20260904174605 78 224 1.0 3.0 0.00 0.00 0.00 71 1010.9
20260904173106 77 340 0.0 3.0 0.00 0.00 0.00 71 1011.2
20260904171556 76 100 0.0 1.0 0.00 0.00 0.00 74 1011.5
20260904170054 75 82 0.0 2.0 0.00 0.00 0.00 73 1011.5
20260904164555 76 62 0.0 2.0 0.00 0.00 0.00 71 1011.7
20260904163052 76 77 0.0 5.0 0.00 0.00 0.00 73 1011.7
20260904161551 77 343 1.0 5.0 0.00 0.00 0.00 75 1011.8
20260904160051 77 266 0.0 2.0 0.00 0.00 0.00 74 1012.0
20260904154547 76 244 1.0 5.0 0.00 0.00 0.00 73 1012.2
20260904153047 77 247 0.0 2.0 0.00 0.00 0.00 75 1012.3
20260904151546 76 213 0.0 3.0 0.00 0.00 0.00 74 1012.5
20260904150044 75 70 0.0 2.0 0.00 0.00 0.00 79 1012.6
20260904144539 74 80 0.0 2.0 0.00 0.00 0.00 81 1012.6
20260904143036 73 359 1.0 3.0 0.00 0.00 0.00 81 1012.8
20260904141547 71 247 0.0 3.0 0.00 0.00 0.00 86 1012.8
20260904140030 70 56 0.0 2.0 0.00 0.00 0.00 86 1012.9
20260904134528 69 277 0.0 1.0 0.00 0.00 0.00 89 1012.9
20260904133025 68 207 0.0 2.0 0.00 0.00 0.00 92 1013.0
20260904131519 66 116 0.0 1.0 0.00 0.00 0.00 97 1012.9
20260904130015 65 105 0.0 1.0 0.00 0.00 0.00 98 1013.0
20260904124512 63 96 0.0 2.0 0.00 0.01 0.00 98 1013.1
20260904123010 63 120 0.0 1.0 0.00 0.01 0.00 98 1013.1
20260904121509 62 103 0.0 1.0 0.00 0.01 0.00 98 1012.9
20260904120012 62 143 0.0 0.0 0.00 0.01 0.00 98 1012.9
20260904114506 62 181 0.0 0.0 0.00 0.02 0.00 98 1012.9
20260904113016 62 154 0.0 1.0 0.00 0.02 0.00 98 1012.8
20260904111516 62 105 0.0 1.0 0.00 0.02 0.00 99 1012.8